Date,TemperatureHighF,TemperatureAvgF,TemperatureLowF,DewpointHighF,DewpointAvgF,DewpointLowF,HumidityHigh,HumidityAvg,HumidityLow,PressureMaxIn,PressureMinIn,WindSpeedMaxMPH,WindSpeedAvgMPH,GustSpeedMaxMPH,PrecipitationSumIn
2013-1-1,55,36,24,35,24,19,93,70,24,30.33,30.23,10,2,17,0.01
2013-1-2,56,34,22,30,24,19,90,71,27,30.30,30.18,3,0,5,0.00
2013-1-3,54,33,21,35,26,19,90,78,38,30.33,30.23,2,0,4,0.00
2013-1-4,58,37,25,36,29,23,92,76,34,30.35,30.20,3,0,3,0.01
2013-1-5,43,36,26,41,33,24,96,90,75,30.32,30.12,3,0,4,0.45
2013-1-6,54,42,31,44,38,29,96,87,60,30.22,30.11,3,0,4,0.02
2013-1-7,57,41,30,46,37,28,96,86,61,30.28,30.18,3,0,6,0.01
2013-1-8,62,43,32,48,39,31,96,86,56,30.28,30.13,2,0,4,0.01
2013-1-9,50,42,35,46,37,28,97,82,49,30.19,29.97,10,2,12,0.00
2013-1-10,50,37,27,31,26,22,92,69,33,30.21,30.07,7,2,11,0.01
2013-1-11,50,35,24,33,27,21,91,76,44,30.27,30.13,3,1,5,0.00
2013-1-12,49,33,23,31,23,15,91,71,26,30.29,30.15,4,0,5,0.00
2013-1-13,51,33,17,26,15,4,88,55,15,30.32,30.21,10,2,15,0.01
2013-1-14,55,41,27,22,12,5,77,35,15,30.42,30.29,13,4,18,0.00
2013-1-15,58,35,22,30,24,19,87,68,29,30.52,30.41,4,1,5,0.00
2013-1-16,69,39,24,35,25,16,91,65,14,30.46,30.28,7,1,11,0.00
2013-1-17,71,39,22,32,23,12,89,62,11,30.32,30.16,5,0,6,0.00
2013-1-18,66,38,21,32,24,18,88,64,21,30.30,30.16,2,0,4,0.00
2013-1-19,66,37,20,31,23,17,89,65,16,30.33,30.19,2,0,3,0.00
2013-1-20,65,38,21,32,24,18,88,64,20,30.32,30.14,2,0,5,0.00
2013-1-21,65,38,21,34,25,18,90,67,22,30.24,30.13,3,0,5,0.01
2013-1-22,65,40,23,36,28,20,91,68,22,30.19,30.04,2,0,4,0.00
2013-1-23,50,44,38,46,40,32,96,85,65,30.14,30.01,4,0,6,0.49
2013-1-24,60,51,46,53,7,-100,97,65,65,30.21,30.11,4,0,5,0.04
2013-1-25,62,52,44,52,40,-100,96,82,64,30.21,30.06,4,0,5,0.00
2013-1-26,59,46,36,42,0,-100,96,49,30,30.06,29.94,9,2,15,0.01
2013-1-27,55,40,27,35,29,23,93,70,29,30.19,30.06,6,1,10,0.00
2013-1-28,57,43,29,36,32,26,92,68,34,30.31,30.19,7,2,11,0.00
2013-1-29,65,44,30,42,34,28,93,71,33,30.38,30.26,6,1,9,0.00
2013-1-30,72,48,34,43,33,18,94,66,13,30.37,30.24,6,1,8,0.00
2013-1-31,66,43,28,42,34,26,93,73,33,30.35,30.20,4,0,6,0.01